カタログに戻る

EUTE 8 WEST B

運用中通信GEO
NORAD 40875·PAYLOAD·🇪🇺 EU

打ち上げ Aug 20, 2015 から Guiana Space Centre

Loading…

TLE

最新Source: Space-Track

元期: Sep 14, 2026, 08:38 UTC

1 40875U 15039B   26257.35974507 -.00000074  00000-0  00000-0 0  9996
2 40875   0.0668 350.9657 0003654 181.4722 302.4461  1.00270907 40554

AllMySatでEUTE 8 WEST Bをリアルタイム追跡

Download on the App Store